TimeCST,TemperatureF,Dew PointF,Humidity,Sea Level PressureIn,VisibilityMPH,Wind Direction,Wind SpeedMPH,Gust SpeedMPH,PrecipitationIn,Events,Conditions,WindDirDegrees,DateUTC
12:52 AM,68.0,59.0,73,30.12,10.0,SSE,11.5,-,N/A,,Overcast,150,2012-12-31 06:52:00
1:52 AM,66.9,60.1,79,30.08,10.0,SSE,13.8,-,N/A,,Overcast,150,2012-12-31 07:52:00
2:30 AM,68.0,60.8,78,30.08,10.0,SSE,15.0,-,N/A,,Overcast,150,2012-12-31 08:30:00
2:52 AM,66.9,61.0,81,30.07,10.0,SSE,11.5,-,N/A,,Mostly Cloudy,150,2012-12-31 08:52:00
3:28 AM,68.0,62.6,83,30.07,10.0,SSE,11.5,-,N/A,,Mostly Cloudy,150,2012-12-31 09:28:00
3:52 AM,68.0,62.1,81,30.05,10.0,SSE,10.4,-,N/A,,Overcast,150,2012-12-31 09:52:00
4:10 AM,69.8,62.6,78,30.05,10.0,South,18.4,-,N/A,,Overcast,170,2012-12-31 10:10:00
4:52 AM,66.9,62.1,84,30.04,10.0,South,15.0,-,N/A,,Overcast,180,2012-12-31 10:52:00
5:08 AM,66.2,62.6,88,30.04,10.0,South,11.5,-,N/A,,Overcast,180,2012-12-31 11:08:00
5:26 AM,66.2,62.6,88,30.04,10.0,South,9.2,-,N/A,,Overcast,180,2012-12-31 11:26:00
5:52 AM,66.0,61.0,84,30.04,10.0,South,12.7,-,N/A,,Overcast,180,2012-12-31 11:52:00
6:52 AM,64.9,60.1,84,30.03,10.0,South,6.9,-,0.00,,Overcast,170,2012-12-31 12:52:00
7:25 AM,64.4,60.8,88,30.02,10.0,SSE,8.1,-,N/A,,Mostly Cloudy,160,2012-12-31 13:25:00
7:52 AM,64.4,60.8,88,30.03,10.0,SSE,6.9,-,N/A,,Scattered Clouds,160,2012-12-31 13:52:00
8:04 AM,66.2,60.8,83,30.03,10.0,South,6.9,-,N/A,,Mostly Cloudy,170,2012-12-31 14:04:00
8:52 AM,68.0,62.1,81,30.03,10.0,South,9.2,-,N/A,,Scattered Clouds,170,2012-12-31 14:52:00
9:52 AM,72.0,62.1,71,30.04,10.0,South,16.1,23.0,N/A,,Overcast,170,2012-12-31 15:52:00
10:52 AM,75.0,62.1,64,30.03,10.0,South,20.7,26.5,N/A,,Overcast,170,2012-12-31 16:52:00
11:52 AM,78.1,62.1,58,29.99,10.0,South,20.7,29.9,N/A,,Overcast,180,2012-12-31 17:52:00
12:52 PM,79.0,63.0,58,29.95,10.0,South,21.9,29.9,N/A,,Overcast,180,2012-12-31 18:52:00
1:52 PM,78.1,61.0,56,29.91,10.0,South,26.5,32.2,N/A,,Mostly Cloudy,180,2012-12-31 19:52:00
2:52 PM,77.0,62.1,60,29.89,10.0,South,21.9,28.8,N/A,,Partly Cloudy,180,2012-12-31 20:52:00
3:52 PM,77.0,63.0,62,29.89,10.0,South,24.2,33.4,N/A,,Partly Cloudy,180,2012-12-31 21:52:00
4:52 PM,75.2,62.6,65,29.88,10.0,South,20.7,28.8,N/A,,Clear,170,2012-12-31 22:52:00
5:52 PM,73.9,63.0,68,29.89,10.0,SSE,16.1,-,N/A,,Clear,160,2012-12-31 23:52:00
6:52 PM,72.0,64.0,76,29.91,10.0,South,15.0,-,N/A,,Partly Cloudy,170,2013-01-01 00:52:00
7:52 PM,72.0,64.0,76,29.92,10.0,South,12.7,-,N/A,,Clear,170,2013-01-01 01:52:00
8:29 PM,71.6,64.4,78,29.92,10.0,South,16.1,-,N/A,,Mostly Cloudy,170,2013-01-01 02:29:00
8:52 PM,72.0,64.9,78,29.93,10.0,South,13.8,-,N/A,,Scattered Clouds,170,2013-01-01 02:52:00
9:52 PM,72.0,64.9,78,29.94,10.0,South,10.4,-,N/A,,Clear,170,2013-01-01 03:52:00
10:52 PM,71.1,64.9,81,29.94,10.0,South,10.4,-,N/A,,Partly Cloudy,180,2013-01-01 04:52:00
11:14 PM,71.6,64.4,78,29.94,10.0,South,12.7,-,N/A,,Mostly Cloudy,190,2013-01-01 05:14:00
11:36 PM,71.6,64.4,78,29.93,10.0,South,11.5,-,N/A,,Overcast,170,2013-01-01 05:36:00
11:52 PM,72.0,64.9,78,29.93,10.0,South,13.8,-,N/A,,Overcast,180,2013-01-01 05:52:00